Location: Grantsboro
(35.1404°N, 76.8424°W)
Time: 12:19:52
(UTC+00:00)

STARLINK-27 - Pass Details

Date: 18 January 2020
Orbit: 528 x 531 km, 53.0° (Epoch: 17 February)

Event Time Altitude Azimuth Distance (km) Brightness Sun altitude
Exits shadow 09:49:33 10° 161° (SSE) 1,770 6.4 -29.3°
Reaches altitude 10° 09:49:36 10° 161° (SSE) 1,759 6.4 -29.3°
Drops below altitude 10° 09:54:17 10° 88° (E) 1,764 7.1 -28.3°
Enters shadow 11:00:14 -54° 227° (SW) 10,908 10.1 -15.1°
Maximum altitude 11:30:37 55° 318° (NW) 637 3.6 -9.2°
